Location: downtown San Diego
(32.7310°N, 117.1990°W)
Time: 17:58:33
(UTC-07:00)

GPS 2-05 Rocket1 - Pass Details

Date: 19 May 2017
Orbit: 373 x 445 km, 35.6° (Epoch: 26 May)

Event Time Altitude Azimuth Distance (km) Brightness Sun altitude
Rises 20:33:20 0° 285° (WNW) 2,241 8.1 -10.0°
Reaches altitude 10° 20:35:23 10° 285° (WNW) 1,397 6.7 -10.4°
Maximum altitude 20:38:33 83° 196° (SSW) 394 2.5 -10.9°
Enters shadow 20:40:48 18° 110° (ESE) 1,033 4.1 -11.3°
